Tracking 29892 objects as of 21-Nov-2024
HD Live streaming from Space Station
objects crossing your sky now

STARLINK-2399

Track STARLINK-2399 now!
10-day predictions
STARLINK-2399 is classified as:


NORAD ID: 47816
Int'l Code: 2021-018AF
Perigee: 553.2 km
Apogee: 555.4 km
Inclination: 53.1 °
Period: 95.6 minutes
Semi major axis: 6925 km
RCS: Unknown
Launch date: March 11, 2021
Source: United States (US)
Launch site: AIR FORCE EASTERN TEST RANGE (AFETR)
Your satellite tracking list
Your tracking list is empty




NASA's NSSDC Master Catalog

Two Line Element Set (TLE):
1 47816U 21018AF  24325.14719844  .00022760  00000-0  15412-2 0  9994
2 47816  53.0535 221.9227 0001619  92.9831 267.1343 15.06416905205069
Source of the keplerian elements: AFSPC